Météo par heure à Kislyaki

Ce jour, 5 Mars, Vendredi

Heure Température Précipitation Vent Pression Humidité
00:00 -6°C° 0 mm 3 m/s 738 mmHg 90%
01:00 -7°C° 0 mm 3 m/s 738 mmHg 91%
02:00 -7°C° 0 mm 3 m/s 738 mmHg 92%
03:00 -7°C° 0 mm 3 m/s 739 mmHg 92%
04:00 -8°C° 0 mm 3 m/s 739 mmHg 92%
05:00 -7°C° 0 mm 2 m/s 739 mmHg 92%
06:00 -7°C° 0 mm 2 m/s 739 mmHg 90%
07:00 -7°C° 0 mm 2 m/s 740 mmHg 88%
08:00 -6°C° 0 mm 2 m/s 740 mmHg 86%
09:00 -5°C° 0 mm 2 m/s 740 mmHg 84%
10:00 -5°C° 0 mm 3 m/s 740 mmHg 81%
11:00 -5°C° 0 mm 3 m/s 740 mmHg 79%
12:00 -4°C° 0.2 mm 4 m/s 741 mmHg 74%
13:00 -4°C° 0.2 mm 4 m/s 741 mmHg 68%
14:00 -4°C° 0.2 mm 5 m/s 741 mmHg 63%
15:00 -5°C° 0.1 mm 5 m/s 741 mmHg 69%
16:00 -6°C° 0.1 mm 5 m/s 742 mmHg 75%
17:00 -6°C° 0.1 mm 5 m/s 742 mmHg 81%
18:00 -7°C° 0.2 mm 5 m/s 742 mmHg 81%
19:00 -7°C° 0.2 mm 5 m/s 743 mmHg 82%
20:00 -8°C° 0.2 mm 4 m/s 744 mmHg 82%
21:00 -8°C° 0 mm 4 m/s 744 mmHg 82%
22:00 -8°C° 0 mm 4 m/s 744 mmHg 83%
23:00 -7°C° 0 mm 3 m/s 745 mmHg 83%

Demain, 6 Mars, Samedi

Heure Température Précipitation Vent Pression Humidité
00:00 -8°C° 0 mm 3 m/s 745 mmHg 85%
01:00 -7°C° 0 mm 2 m/s 745 mmHg 88%
02:00 -8°C° 0 mm 2 m/s 746 mmHg 90%
03:00 -8°C° 0 mm 2 m/s 746 mmHg 90%
04:00 -8°C° 0 mm 2 m/s 746 mmHg 90%
05:00 -9°C° 0 mm 2 m/s 746 mmHg 90%
06:00 -8°C° 0 mm 2 m/s 746 mmHg 88%
07:00 -8°C° 0 mm 2 m/s 747 mmHg 85%
08:00 -9°C° 0 mm 3 m/s 747 mmHg 82%
09:00 -8°C° 0 mm 3 m/s 747 mmHg 78%
10:00 -7°C° 0 mm 3 m/s 747 mmHg 74%
11:00 -7°C° 0 mm 4 m/s 747 mmHg 70%
12:00 -7°C° 0 mm 4 m/s 747 mmHg 68%
13:00 -5°C° 0 mm 4 m/s 747 mmHg 66%
14:00 -5°C° 0 mm 4 m/s 746 mmHg 64%
15:00 -5°C° 0 mm 4 m/s 746 mmHg 66%
16:00 -6°C° 0 mm 3 m/s 746 mmHg 68%
17:00 -5°C° 0 mm 2 m/s 745 mmHg 70%
18:00 -6°C° 0 mm 3 m/s 745 mmHg 69%
19:00 -7°C° 0 mm 4 m/s 745 mmHg 69%
20:00 -8°C° 0 mm 4 m/s 744 mmHg 68%
21:00 -7°C° 0 mm 5 m/s 744 mmHg 67%
22:00 -7°C° 0 mm 5 m/s 743 mmHg 67%
23:00 -8°C° 0 mm 6 m/s 742 mmHg 66%

Après-demain, 7 Mars, Dimanche

Heure Température Précipitation Vent Pression Humidité
00:00 -8°C° 0 mm 6 m/s 741 mmHg 69%
01:00 -7°C° 0 mm 7 m/s 740 mmHg 71%
02:00 -7°C° 0 mm 7 m/s 739 mmHg 73%
03:00 -7°C° 0.1 mm 7 m/s 737 mmHg 79%
04:00 -7°C° 0.1 mm 8 m/s 736 mmHg 85%
05:00 -7°C° 0.1 mm 8 m/s 734 mmHg 90%
06:00 -8°C° 0.4 mm 9 m/s 734 mmHg 90%
07:00 -6°C° 0.4 mm 9 m/s 733 mmHg 90%
08:00 -5°C° 0.4 mm 9 m/s 732 mmHg 90%
09:00 -6°C° 0.6 mm 9 m/s 732 mmHg 82%
10:00 -6°C° 0.6 mm 8 m/s 733 mmHg 73%
11:00 -7°C° 0.6 mm 8 m/s 733 mmHg 65%
12:00 -7°C° 0 mm 8 m/s 733 mmHg 59%
13:00 -6°C° 0 mm 7 m/s 734 mmHg 54%
14:00 -6°C° 0 mm 7 m/s 734 mmHg 49%
15:00 -6°C° 0 mm 6 m/s 734 mmHg 57%
16:00 -6°C° 0 mm 6 m/s 733 mmHg 65%
17:00 -8°C° 0 mm 6 m/s 733 mmHg 73%
18:00 -8°C° 0 mm 6 m/s 733 mmHg 73%
19:00 -8°C° 0 mm 6 m/s 732 mmHg 74%
20:00 -9°C° 0 mm 6 m/s 732 mmHg 74%
21:00 -9°C° 0 mm 6 m/s 732 mmHg 75%
22:00 -9°C° 0 mm 7 m/s 732 mmHg 77%
23:00 -9°C° 0 mm 7 m/s 732 mmHg 78%

8 Mars, Lundi

Heure Température Précipitation Vent Pression Humidité
00:00 -11°C° 0.3 mm 7 m/s 732 mmHg 75%
01:00 -11°C° 0.3 mm 6 m/s 733 mmHg 72%
02:00 -12°C° 0.3 mm 6 m/s 733 mmHg 70%
03:00 -12°C° 0 mm 6 m/s 734 mmHg 73%
04:00 -13°C° 0 mm 5 m/s 734 mmHg 77%
05:00 -13°C° 0 mm 5 m/s 735 mmHg 81%
06:00 -13°C° 0 mm 5 m/s 736 mmHg 81%
07:00 -13°C° 0 mm 5 m/s 736 mmHg 82%
08:00 -14°C° 0 mm 5 m/s 737 mmHg 82%
09:00 -13°C° 0 mm 5 m/s 738 mmHg 79%
10:00 -12°C° 0 mm 5 m/s 738 mmHg 75%
11:00 -10°C° 0 mm 4 m/s 739 mmHg 72%
12:00 -10°C° 0 mm 5 m/s 739 mmHg 69%
13:00 -10°C° 0 mm 5 m/s 740 mmHg 66%
14:00 -8°C° 0 mm 5 m/s 740 mmHg 63%
15:00 -8°C° 0 mm 4 m/s 740 mmHg 66%
16:00 -9°C° 0 mm 4 m/s 741 mmHg 70%
17:00 -9°C° 0 mm 4 m/s 741 mmHg 74%
18:00 -9°C° 0 mm 3 m/s 741 mmHg 78%
19:00 -10°C° 0 mm 3 m/s 742 mmHg 82%
20:00 -10°C° 0 mm 3 m/s 742 mmHg 85%
21:00 -12°C° 0 mm 3 m/s 743 mmHg 86%
22:00 -13°C° 0 mm 3 m/s 743 mmHg 87%
23:00 -14°C° 0 mm 3 m/s 743 mmHg 87%

9 Mars, Mardi

Heure Température Précipitation Vent Pression Humidité
00:00 -14°C° 0 mm 3 m/s 744 mmHg 87%
01:00 -14°C° 0 mm 3 m/s 744 mmHg 87%
02:00 -15°C° 0 mm 3 m/s 744 mmHg 87%
03:00 -15°C° 0 mm 3 m/s 745 mmHg 87%
04:00 -15°C° 0 mm 3 m/s 745 mmHg 87%
05:00 -16°C° 0 mm 3 m/s 746 mmHg 87%
06:00 -17°C° 0 mm 4 m/s 746 mmHg 86%
07:00 -17°C° 0 mm 4 m/s 747 mmHg 85%
08:00 -17°C° 0 mm 4 m/s 747 mmHg 84%
09:00 -16°C° 0 mm 4 m/s 748 mmHg 82%
10:00 -16°C° 0 mm 4 m/s 748 mmHg 79%
11:00 -15°C° 0 mm 4 m/s 749 mmHg 77%
12:00 -14°C° 0 mm 4 m/s 749 mmHg 74%
13:00 -14°C° 0 mm 4 m/s 750 mmHg 71%
14:00 -12°C° 0 mm 4 m/s 750 mmHg 69%
15:00 -12°C° 0 mm 3 m/s 750 mmHg 71%
16:00 -12°C° 0 mm 3 m/s 750 mmHg 73%
17:00 -12°C° 0 mm 3 m/s 750 mmHg 75%
18:00 -12°C° 0 mm 2 m/s 751 mmHg 79%
19:00 -13°C° 0 mm 2 m/s 751 mmHg 83%
20:00 -13°C° 0 mm 2 m/s 752 mmHg 87%
21:00 -14°C° 0 mm 2 m/s 752 mmHg 87%
22:00 -12°C° 0 mm 1 m/s 752 mmHg 88%
23:00 -12°C° 0 mm 1 m/s 752 mmHg 88%

10 Mars, Mercredi

Heure Température Précipitation Vent Pression Humidité
00:00 -14°C° 0 mm 2 m/s 752 mmHg 88%
01:00 -14°C° 0 mm 2 m/s 752 mmHg 88%
02:00 -14°C° 0 mm 2 m/s 752 mmHg 88%
03:00 -15°C° 0 mm 3 m/s 752 mmHg 85%
04:00 -14°C° 0 mm 3 m/s 752 mmHg 82%
05:00 -14°C° 0 mm 3 m/s 752 mmHg 79%
06:00 -14°C° 0 mm 4 m/s 752 mmHg 76%
07:00 -14°C° 0 mm 4 m/s 751 mmHg 73%
08:00 -13°C° 0 mm 5 m/s 751 mmHg 70%
09:00 -12°C° 0 mm 5 m/s 751 mmHg 67%
10:00 -11°C° 0 mm 6 m/s 751 mmHg 64%
11:00 -10°C° 0 mm 6 m/s 751 mmHg 62%
12:00 -9°C° 0 mm 6 m/s 750 mmHg 60%
13:00 -9°C° 0 mm 6 m/s 750 mmHg 58%
14:00 -8°C° 0 mm 6 m/s 750 mmHg 57%
15:00 -8°C° 0 mm 6 m/s 749 mmHg 58%
16:00 -7°C° 0 mm 5 m/s 749 mmHg 60%
17:00 -8°C° 0 mm 5 m/s 749 mmHg 61%
18:00 -8°C° 0 mm 4 m/s 749 mmHg 63%
19:00 -8°C° 0 mm 4 m/s 749 mmHg 65%
20:00 -9°C° 0 mm 4 m/s 749 mmHg 67%
21:00 -9°C° 0 mm 4 m/s 748 mmHg 69%
22:00 -9°C° 0 mm 4 m/s 748 mmHg 70%
23:00 -10°C° 0 mm 4 m/s 748 mmHg 72%
Voir plus

Nous avons besoin de votre consentement

Meteoprog et ses fournisseurs de services peuvent stocker et accéder à des données personnelles telles que des cookies, des identifiants d'appareils ou d'autres technologies similaires sur votre appareil et traiter ces données pour personnaliser le contenu et les publicités, ainsi que pour fournir des fonctionnalités de médias sociaux et analyser le trafic.

  • Stocker et/ou accéder à des informations sur votre appareil

    Des cookies, des identifiants d'appareils ou d'autres informations peuvent être stockés ou accessibles sur votre appareil aux fins indiquées ci-dessus.

  • Annonces et contenus personnalisés, mesure des annonces et des contenus, connaissance de l'audience et développement de produits

    Les annonces et le contenu peuvent être personnalisés en fonction d'un profil. D'autres données peuvent être ajoutées pour mieux personnaliser les annonces et le contenu. Les performances des publicités et du contenu peuvent être mesurées. Il est possible d'obtenir des informations sur le public qui a vu les publicités et le contenu. Ces données peuvent être utilisées pour développer ou améliorer l'expérience de l'utilisateur, les systèmes et les logiciels.

En cliquant sur "J'accepte", vous autorisez l'utilisation de cookies, des identifiants d'appareils, des balises web ou d'autres technologies similaires. Vos paramètres peuvent être modifiés dans le navigateur de votre appareil.

Dans certains cas, des intérêts légitimes peuvent être invoqués plutôt qu'un consentement. Vous pouvez en savoir plus à ce sujet dans notre Politique de confidentialité et de cookies.